Weather History for Peachtree City, GA

Change the Weather History Date:

Wednesday, September 11, 2013

  Actual Average Record
Temperature  
Mean Temperature 77 °F 74 °F  
Max Temperature 90 °F 85 °F 95 °F (2002)
Min Temperature 63 °F 63 °F 50 °F (1999)
Degree Days  
Heating Degree Days 0 0  
Month to date heating degree days 0 0  
Since 1 July heating degree days 0 0  
Cooling Degree Days 12 9  
Month to date cooling degree days 140 114  
Year to date cooling degree days 1402 1494  
Growing Degree Days 26 (Base 50)    
Moisture  
Dew Point 65 °F    
Average Humidity 69    
Maximum Humidity 100    
Minimum Humidity 38    
Precipitation  
Precipitation 0.00 in 0.12 in 0.25 in (2001)
Month to date precipitation 0.54 1.39  
Year to date precipitation 26.41 36.12  
Snow  
Snow 0.00 in - - ()
Month to date snowfall 0.0  
Since 1 July snowfall 0.0  
Since 1 September snowfall 0.0  
Snow Depth 0.00 in    
Sea Level Pressure  
Sea Level Pressure 30.17 in    
Wind  
Wind Speed 3 mph (ESE)    
Max Wind Speed 12 mph    
Max Gust Speed 17 mph    
Visibility 8 miles    
Events      
T = Trace of Precipitation, MM = Missing Value Source: NWS Daily Summary

Daily Weather History Graph

Daily Weather History Graph

Search for Another Location

Airport:

Trip Planner

Search our weather history database for the weather conditions in past years. The results will help you decide how hot, cold, wet, or windy it might be!

Date:

Astronomy

Sep. 11, 2013 Rise Set
Actual Time 7:19 AM EDT 7:49 PM EDT
Civil Twilight 6:54 AM EDT 8:14 PM EDT
Nautical Twilight 6:24 AM EDT 8:43 PM EDT
Astronomical Twilight 5:55 AM EDT 9:13 PM EDT
Moon 1:27 PM EDT (9/11) No Moon Set
Length of Visible Light 13h 20m
Length of Day
12h 30m
Waxing Crescent, 38% of the Moon is Illuminated
Sep 11
Waxing Crescent
Sep 12
First Quarter
Sep 19
Full
Sep 26
Last Quarter
Oct 4
New

Hourly Weather History & Observations

Time (EDT) Temp. Heat Index Dew Point Humidity Pressure Visibility Wind Dir Wind Speed Gust Speed Precip Events Conditions
12:53 AM 66.9 °F - 66.9 °F 100% 30.20 in 4.0 mi Calm Calm - N/A   Clear
1:53 AM 66.9 °F - 66.0 °F 97% 30.19 in 4.0 mi Calm Calm - N/A   Clear
2:53 AM 66.0 °F - 64.9 °F 96% 30.18 in 5.0 mi Calm Calm - N/A   Clear
3:53 AM 64.9 °F - 64.0 °F 97% 30.19 in 4.0 mi Calm Calm - N/A   Clear
4:53 AM 64.0 °F - 63.0 °F 96% 30.19 in 5.0 mi Calm Calm - N/A   Clear
5:53 AM 64.0 °F - 63.0 °F 96% 30.19 in 5.0 mi Calm Calm - N/A   Clear
6:53 AM 63.0 °F - 62.1 °F 97% 30.21 in 5.0 mi Calm Calm - N/A   Clear
7:53 AM 64.0 °F - 63.0 °F 96% 30.22 in 4.0 mi Calm Calm - N/A   Clear
8:53 AM 71.1 °F - 68.0 °F 90% 30.24 in 6.0 mi Calm Calm - N/A   Clear
9:53 AM 78.1 °F - 68.0 °F 71% 30.24 in 10.0 mi Calm Calm - N/A   Clear
10:53 AM 82.0 °F 84.9 °F 68.0 °F 62% 30.23 in 10.0 mi ENE 5.8 mph - N/A   Clear
11:53 AM 84.0 °F 86.5 °F 66.9 °F 56% 30.22 in 10.0 mi ENE 6.9 mph - N/A   Clear
12:53 PM 86.0 °F 88.2 °F 66.0 °F 51% 30.20 in 10.0 mi SE 10.4 mph - N/A   Partly Cloudy
1:53 PM 88.0 °F 88.4 °F 62.1 °F 42% 30.19 in 10.0 mi ESE 8.1 mph - N/A   Partly Cloudy
2:53 PM 88.0 °F 87.9 °F 61.0 °F 40% 30.16 in 10.0 mi SE 11.5 mph 17.3 mph N/A   Partly Cloudy
3:53 PM 88.0 °F 87.9 °F 61.0 °F 40% 30.14 in 10.0 mi SE 6.9 mph - N/A   Scattered Clouds
4:53 PM 89.1 °F 88.8 °F 60.1 °F 38% 30.12 in 10.0 mi Variable 5.8 mph - N/A   Partly Cloudy
5:53 PM 87.1 °F 87.0 °F 61.0 °F 41% 30.12 in 10.0 mi Variable 3.5 mph - N/A   Clear
6:53 PM 82.0 °F 84.5 °F 66.9 °F 60% 30.11 in 10.0 mi SE 3.5 mph - N/A   Clear
7:53 PM 73.9 °F - 69.1 °F 85% 30.12 in 10.0 mi Calm Calm - N/A   Clear
8:53 PM 70.0 °F - 68.0 °F 93% 30.13 in 8.0 mi Calm Calm - N/A   Clear
9:53 PM 68.0 °F - 66.0 °F 93% 30.13 in 7.0 mi Calm Calm - N/A   Clear
10:53 PM 66.9 °F - 64.9 °F 93% 30.13 in 6.0 mi Calm Calm - N/A   Clear
11:53 PM 66.0 °F - 64.0 °F 93% 30.12 in 6.0 mi Calm Calm - N/A   Clear